Weather History for Auburn, AL

Change the Weather History Date:

Friday, November 30, 2012

  Actual Average Record
Temperature  
Mean Temperature 56 °F -  
Max Temperature 64 °F - 76 °F (1991)
Min Temperature 48 °F - 19 °F (1976)
Degree Days  
Heating Degree Days 9    
Month to date heating degree days 296  
Since 1 July heating degree days 363  
Growing Degree Days 6 (Base 50)    
Moisture  
Dew Point 44 °F    
Average Humidity 66    
Maximum Humidity 82    
Minimum Humidity 52    
Precipitation  
Precipitation 0.00 in - 2.95 in (1985)
Month to date precipitation 1.14  
Year to date precipitation 23.27  
Sea Level Pressure  
Sea Level Pressure 30.28 in    
Wind  
Wind Speed 6 mph (ESE)    
Max Wind Speed 9 mph    
Max Gust Speed 16 mph    
Visibility 10 miles    
Events      
T = Trace of Precipitation, MM = Missing Value Source: NWS Daily Summary

Daily Weather History Graph

Daily Weather History Graph

Search for Another Location

Airport:

Trip Planner

Search our weather history database for the weather conditions in past years. The results will help you decide how hot, cold, wet, or windy it might be!

Date:

Astronomy

Nov. 30, 2012 Rise Set
Actual Time 6:25 AM CST 4:35 PM CST
Civil Twilight 5:58 AM CST 5:02 PM CST
Nautical Twilight 5:28 AM CST 5:32 PM CST
Astronomical Twilight 4:58 AM CST 6:02 PM CST
Moon 6:29 PM CST (11/30) 7:57 AM CST (11/30)
Length of Visible Light 11h 04m
Length of Day
10h 10m
Waning Gibbous, 96% of the Moon is Illuminated
Nov 30
Waning Gibbous
Dec 6
Last Quarter
Dec 13
New
Dec 19
First Quarter
Dec 28
Full

Hourly Weather History & Observations

Time (CST) Temp. Dew Point Humidity Pressure Visibility Wind Dir Wind Speed Gust Speed Precip Events Conditions
12:15 AM 50.0 °F 37.4 °F 62% 30.30 in 10.0 mi East 8.1 mph - N/A   Scattered Clouds
12:35 AM 50.0 °F 39.2 °F 66% 30.30 in 10.0 mi East 8.1 mph - N/A   Overcast
12:55 AM 50.0 °F 39.2 °F 66% 30.30 in 10.0 mi East 5.8 mph - N/A   Overcast
1:15 AM 51.8 °F 39.2 °F 62% 30.30 in 10.0 mi East 8.1 mph - N/A   Overcast
1:35 AM 51.8 °F 39.2 °F 62% 30.30 in 10.0 mi East 6.9 mph - N/A   Overcast
1:55 AM 50.0 °F 41.0 °F 71% 30.30 in 10.0 mi ESE 5.8 mph - N/A   Mostly Cloudy
2:15 AM 50.0 °F 41.0 °F 71% 30.30 in 10.0 mi East 6.9 mph - N/A   Scattered Clouds
2:35 AM 48.2 °F 42.8 °F 82% 30.30 in 10.0 mi East 6.9 mph - N/A   Mostly Cloudy
2:55 AM 50.0 °F 42.8 °F 76% 30.31 in 10.0 mi East 6.9 mph - N/A   Overcast
3:15 AM 50.0 °F 42.8 °F 76% 30.30 in 10.0 mi East 5.8 mph - N/A   Overcast
3:35 AM 50.0 °F 42.8 °F 76% 30.30 in 10.0 mi ESE 3.5 mph - N/A   Overcast
3:55 AM 50.0 °F 42.8 °F 76% 30.30 in 10.0 mi East 8.1 mph - N/A   Overcast
4:15 AM 50.0 °F 42.8 °F 76% 30.30 in 10.0 mi ESE 4.6 mph - N/A   Overcast
4:35 AM 50.0 °F 42.8 °F 76% 30.30 in 10.0 mi East 6.9 mph - N/A   Overcast
4:55 AM 51.8 °F 44.6 °F 76% 30.30 in 10.0 mi East 6.9 mph - N/A   Overcast
5:15 AM 51.8 °F 44.6 °F 76% 30.30 in 10.0 mi ESE 8.1 mph - N/A   Overcast
5:35 AM 51.8 °F 44.6 °F 76% 30.30 in 10.0 mi ESE 8.1 mph 16.1 mph N/A   Overcast
5:55 AM 50.0 °F 44.6 °F 82% 30.31 in 10.0 mi East 5.8 mph - N/A   Overcast
6:15 AM 50.0 °F 44.6 °F 82% 30.31 in 10.0 mi East 6.9 mph - N/A   Overcast
6:35 AM 51.8 °F 44.6 °F 76% 30.32 in 10.0 mi East 6.9 mph - N/A   Overcast
6:55 AM 51.8 °F 44.6 °F 76% 30.33 in 10.0 mi South 5.8 mph - N/A   Overcast
7:15 AM 50.0 °F 44.6 °F 82% 30.33 in 10.0 mi SSE 3.5 mph - N/A   Overcast
7:35 AM 50.0 °F 44.6 °F 82% 30.33 in 10.0 mi East 4.6 mph - N/A   Overcast
7:55 AM 51.8 °F 44.6 °F 76% 30.33 in 10.0 mi ESE 4.6 mph - N/A   Overcast
8:15 AM 51.8 °F 44.6 °F 76% 30.32 in 1.8 mi ESE 5.8 mph - N/A   Overcast
8:35 AM 53.6 °F 44.6 °F 72% 30.33 in 9.0 mi ESE 9.2 mph - N/A   Mostly Cloudy
8:55 AM 53.6 °F 44.6 °F 72% 30.33 in 3.0 mi ESE 6.9 mph - N/A   Overcast
9:15 AM 55.4 °F 46.4 °F 72% 30.33 in 10.0 mi SE 6.9 mph - N/A   Overcast
9:35 AM 57.2 °F 46.4 °F 67% 30.33 in 10.0 mi SE 4.6 mph - N/A   Overcast
9:55 AM 57.2 °F 46.4 °F 67% 30.33 in 10.0 mi SE 6.9 mph - N/A   Overcast
10:15 AM 57.2 °F 48.2 °F 72% 30.33 in 10.0 mi ESE 4.6 mph - N/A   Overcast
10:35 AM 59.0 °F 48.2 °F 67% 30.32 in 10.0 mi Calm Calm - N/A   Overcast
10:55 AM 60.8 °F 48.2 °F 63% 30.31 in 10.0 mi SE 4.6 mph - N/A   Overcast
11:15 AM 60.8 °F 48.2 °F 63% 30.30 in 10.0 mi SE 5.8 mph - N/A   Overcast
11:35 AM 60.8 °F 46.4 °F 59% 30.29 in 10.0 mi ESE 3.5 mph - N/A   Overcast
11:55 AM 62.6 °F 46.4 °F 55% 30.28 in 10.0 mi South 6.9 mph - N/A   Overcast
12:15 PM 62.6 °F 46.4 °F 55% 30.27 in 10.0 mi SE 8.1 mph - N/A   Overcast
12:35 PM 62.6 °F 46.4 °F 55% 30.26 in 10.0 mi ESE 5.8 mph - N/A   Overcast
12:55 PM 64.4 °F 46.4 °F 52% 30.26 in 10.0 mi South 5.8 mph - N/A   Overcast
1:15 PM 64.4 °F 46.4 °F 52% 30.25 in 10.0 mi SSE 6.9 mph - N/A   Overcast
1:35 PM 64.4 °F 46.4 °F 52% 30.25 in 10.0 mi SSE 4.6 mph - N/A   Overcast
1:55 PM 64.4 °F 46.4 °F 52% 30.25 in 10.0 mi South 8.1 mph - N/A   Overcast
2:15 PM 64.4 °F 46.4 °F 52% 30.24 in 10.0 mi ESE 5.8 mph - N/A   Overcast
2:35 PM 64.4 °F 46.4 °F 52% 30.24 in 10.0 mi ESE 4.6 mph - N/A   Overcast
2:55 PM 64.4 °F 46.4 °F 52% 30.24 in 10.0 mi SE 6.9 mph - N/A   Overcast
3:15 PM 64.4 °F 46.4 °F 52% 30.24 in 10.0 mi ESE 6.9 mph - N/A   Overcast
3:35 PM 64.4 °F 46.4 °F 52% 30.24 in 10.0 mi ESE 5.8 mph - N/A   Overcast
3:55 PM 64.4 °F 46.4 °F 52% 30.24 in 10.0 mi SSE 4.6 mph - N/A   Mostly Cloudy
4:15 PM 64.4 °F 46.4 °F 52% 30.24 in 10.0 mi SE 3.5 mph - N/A   Overcast
4:35 PM 62.6 °F 46.4 °F 55% 30.24 in 10.0 mi ESE 3.5 mph - N/A   Mostly Cloudy
4:55 PM 60.8 °F 46.4 °F 59% 30.23 in 10.0 mi ESE 3.5 mph - N/A   Mostly Cloudy
5:15 PM 60.8 °F 46.4 °F 59% 30.24 in 10.0 mi SE 3.5 mph - N/A   Mostly Cloudy
5:35 PM 60.8 °F 44.6 °F 55% 30.24 in 10.0 mi SE 3.5 mph - N/A   Scattered Clouds
6:15 PM 57.2 °F 42.8 °F 59% 30.25 in 10.0 mi ESE 6.9 mph - N/A   Mostly Cloudy
6:35 PM 59.0 °F 42.8 °F 55% 30.25 in 10.0 mi ESE 4.6 mph - N/A   Clear
6:55 PM 55.4 °F 42.8 °F 63% 30.25 in 10.0 mi SE 3.5 mph - N/A   Clear
7:15 PM 57.2 °F 44.6 °F 63% 30.25 in 10.0 mi ESE 4.6 mph - N/A   Clear
7:35 PM 57.2 °F 42.8 °F 59% 30.25 in 10.0 mi ESE 4.6 mph - N/A   Clear
7:55 PM 55.4 °F 42.8 °F 63% 30.25 in 10.0 mi ESE 4.6 mph - N/A   Clear
8:15 PM 55.4 °F 42.8 °F 63% 30.26 in 10.0 mi East 3.5 mph - N/A   Clear
8:35 PM 55.4 °F 42.8 °F 63% 30.26 in 10.0 mi East 5.8 mph - N/A   Clear
9:15 PM 55.4 °F 42.8 °F 63% 30.26 in 10.0 mi East 6.9 mph - N/A   Clear
9:35 PM 55.4 °F 44.6 °F 67% 30.26 in 10.0 mi East 6.9 mph - N/A   Clear
10:15 PM 55.4 °F 44.6 °F 67% 30.26 in 10.0 mi East 6.9 mph - N/A   Partly Cloudy
10:35 PM 55.4 °F 44.6 °F 67% 30.26 in 10.0 mi East 6.9 mph - N/A   Clear
10:55 PM 55.4 °F 42.8 °F 63% 30.26 in 10.0 mi East 5.8 mph - N/A   Clear
11:15 PM 53.6 °F 42.8 °F 67% 30.26 in 10.0 mi East 6.9 mph - N/A   Clear
11:35 PM 53.6 °F 44.6 °F 72% 30.26 in 10.0 mi East 6.9 mph - N/A   Clear
11:55 PM 53.6 °F 44.6 °F 72% 30.26 in 10.0 mi East 5.8 mph - N/A   Clear